Regional Weather Roundup
Issued by NWS

Home | Current Version | Previous Version | Graphics & Text | Print | Product List | Glossary On
Versions: 1 2 3 4 5 6 7 8 9 10 11 12 13 14 15 16 17 18 19 20 21 22 23 24 25 26 27 28 29 30 31 32 33 34 35 36 37 38 39 40 41 42 43 44 45 46 47 48 49 50
000
ASUS45 KTFX 220510
RWRMT
MONTANA REGIONAL WEATHER ROUNDUP
NATIONAL WEATHER SERVICE GREAT FALLS MT
1100 PM MDT SAT APR 21 2018

NOTE: "FAIR" INDICATES FEW OR NO CLOUDS BELOW 12000 FEET WITH NO
SIGNIFICANT WEATHER AND/OR OBSTRUCTIONS TO VISIBILITY.

MTZ001>007-043-220600-
WEST OF THE DIVIDE

CITY           SKY/WX    TMP DP  RH WIND       PRES   REMARKS
KALISPELL      FAIR      44  24  45 SW6       30.17S
MISSOULA       FAIR      41  22  46 NW7       30.20R
BUTTE          FAIR      45  25  45 N6        30.15R
MULLAN PASS    FAIR      32  16  51 W7        30.19R WCI  26
ANACONDA         N/A     43  21  42 NE5       30.17R
DEER LODGE       N/A     43  21  42 NW6       30.18S
HAMILTON         N/A     46  27  46 MISG      30.19R
RONAN            N/A     45  27  49 S3        30.21S
$$

MTZ008-052>055-220600-
SOUTHWEST MONTANA

CITY           SKY/WX    TMP DP  RH WIND       PRES   REMARKS
BOZEMAN        FAIR      49  27  42 NW13      30.12R
DILLON         FAIR      47  28  47 E6        30.09R
ENNIS          MOCLDY    46  28  49 N10       30.14R
W YELLOWSTONE  FAIR      36  27  69 CALM      30.14S
THREE FORKS      N/A     50  25  38 N9        30.10R
$$

MTZ009-010-012-014-046-048-049-054-220600-
EAST SLOPES AND CENTRAL MONTANA

CITY           SKY/WX    TMP DP  RH WIND       PRES   REMARKS
CUT BANK       FAIR      40  22  48 S5        30.09S
GREAT FALLS    FAIR      43  20  39 NE6       30.12R
HELENA         FAIR      50  24  36 W9        30.13R
AUGUSTA        FAIR      39  19  44 NW12      30.13R WCI  32
BOWMANS CRNR   FAIR      38  19  45 W9        30.11S WCI  31
CHOTEAU          N/A     43  19  39 W6        30.13R
FAIRFIELD      MOCLDY    43  19  39 NE5       30.11R
POWER          FAIR      40  20  44 NW10      30.10R
RAYNESFORD     FAIR      42  20  41 S6        30.12R
ULM            MOCLDY    46  23  39 N7        30.11R
WHITE SULPHUR    N/A     45  25  45 N10       30.12R
$$

MTZ011-013-016-021-045-047-050-051-220600-
NORTH CENTRAL MONTANA

CITY           SKY/WX    TMP DP  RH WIND       PRES   REMARKS
HAVRE          FAIR      46  26  45 NW17      30.05R
LEWISTOWN      FAIR      45  22  40 N12       30.12R
N BAR RANCH    FAIR      46  21  36 NW18G24   30.09R
CHINOOK          N/A     46  28  49 SW8       30.06R
GEYSER         FAIR      43  19  37 NW6       30.11R
GRASS RANGE    FAIR      46  24  42 NW12      30.07R
STANFORD       FAIR      42  20  42 N10       30.12R
$$

MTZ017>020-022>027-061-062-220600-
NORTHEAST MONTANA

CITY           SKY/WX    TMP DP  RH WIND       PRES   REMARKS
GLASGOW        MOCLDY    56  23  27 NW21G31   30.01R
GLENDIVE       MOCLDY    52  40  63 NW21G28   30.05R
JORDAN           N/A     53  26  35 NW16      30.04R
MALTA          CLEAR     50  28  43 NW13G21   30.03R
SIDNEY         MOCLDY    53  39  59 S13       29.99R
WOLF POINT     CLOUDY    58  28  32 NW8       30.03R
PLENTYWOOD       N/A     54  34  47 W6        29.99R
POPLAR           N/A     55  28  35 CALM      30.03R
$$

MTZ028>42-056>058-220600-
SOUTHCENTRAL AND SOUTHEAST MONTANA

CITY           SKY/WX    TMP DP  RH WIND       PRES   REMARKS
BAKER          FAIR      43  39  86 SE17      30.04F
BILLINGS       FAIR      54  33  45 NE13      30.04R
MILES CITY     MOCLDY    54  41  61 S12       29.97R
BIG TIMBER     CLEAR     50  30  46 S5        30.09R
FORSYTH          N/A     57  36  44 MISG      29.98R
HARLOWTON      FAIR      47  25  42 N24G30    30.06R
LAUREL           N/A     52  34  50 NE8       30.05R
$$

REGIONAL REPORTS...DAKOTAS

CITY           SKY/WX    TMP DP  RH WIND       PRES   REMARKS
WILLISTON      FAIR      52  39  61 S10G20    29.98R
MINOT          FAIR      48  37  65 S23       30.06F
DICKINSON      FAIR      42  37  82 S18G28    30.06F
BEACH          MOCLDY    46  37  71 S18       30.05F
CROSBY         MOCLDY    52  39  62 S21G30    29.95R
TIOGA          FAIR      46  41  81 S20G25    30.00S
BISMARCK       FAIR      46  35  65 S15       30.19R
GRAND FORKS    FAIR      46  43  89 S12       30.22F
FARGO          FAIR      47  40  76 S13       30.27S
BUFFALO SD       N/A     42  36  79 SE15      30.02F
RAPID CITY     FAIR      39  34  82 S15       30.14F WCI  31
$$

REGIONAL REPORTS...WYOMING/IDAHO/WASHINGTON

CITY           SKY/WX    TMP DP  RH WIND       PRES   REMARKS
GILLETTE       FAIR      43  36  76 S18       30.08R
SHERIDAN       FAIR      46  36  68 SW6       30.01S
BUFFALO WY     FAIR      50  34  54 S7        30.07F
CODY           FAIR      59  26  28 W9G18     30.08R
YELLOWSTONE LA   N/A     29  24  82 CALM      30.25R
IDAHO FALLS    FAIR      55  32  41 S15       30.12R
SALMON         FAIR      52  32  46 CALM      30.13R
BOISE          FAIR      55  35  47 W8        30.11R
SPOKANE        MOCLDY    44  27  51 SW9       30.22S
$$

REGIONAL REPORTS...ALBERTA

CITY           SKY/WX    TMP DP  RH WIND       PRES   REMARKS
CALGARY        CLEAR     41  14  33 W5        30.01R
CARDSTON         N/A     43  23  45 W13G18      N/A
EDMONTON       CLEAR     41  27  56 W14       29.86R
FORT MCMURRAY  LGT RAIN  45  39  81 W9        29.71F
HIGH LEVEL     LGT RAIN  37  36  93 N7        29.84S
LETHBRIDGE     PTCLDY    43  23  45 W15G21    30.06R
LLOYDMINSTER   LGT RAIN  37  37 100 W21G30    29.71R WCI  27
MEDICINE HAT   CLEAR     46  27  46 W20G29    30.01R
MILK RIVER       N/A     37  27  65 N6          N/A
ONEFOUR          N/A     45  27  49 W15         N/A
PEACE RIVER    LGT RAIN  41  28  60 W14G21    29.83S
PINCHER CREEK  CLOUDY    41  27  56 SW14G22   30.10R
WATERTON GATE    N/A     41  21  45 SW8         N/A
$$

REGIONAL REPORTS...SASKATCHEWAN

CITY           SKY/WX    TMP DP  RH WIND       PRES   REMARKS
CORONACH         N/A     52  19  28 W22G31      N/A
CYPRESS HILLS    N/A     41  18  38 W13G23      N/A
ESTEVAN        MOCLDY    52  37  58 S24G33    29.93R
MOOSE JAW        N/A     50  30  46 W26G36      N/A
PRINCE ALBERT  MOCLDY    43  36  75 S9        29.59F
REGINA         CLOUDY    50  32  50 W16G23    29.87S
ROCKGLEN         N/A     46  19  34 W18G25      N/A
SASKATOON      CLOUDY    43  39  87 W25G37    29.69R
SWIFT CURRENT  CLEAR     43  32  65 W22G29    29.91R
VAL MARIE        N/A     45  25  45 NW31G38     N/A
$$



USA.gov is the U.S. government's official web portal to all federal, state and local government web resources and services.